Time_in_sec,Latitude,Longitude,Altitude,Nbsat,valid_data
1312471906.39528251,47.37624359,8.55026913,561.03045654,3,1
1312472028.84330082,47.37629318,8.55023861,524.72247314,2,1
1312472028.89531636,47.37629318,8.55023861,524.64404297,2,1
1312472028.94444990,47.37629318,8.55023861,524.56561279,2,1
1312472028.99529910,47.37629318,8.55023861,524.48706055,2,1
1312472029.04739738,47.37629318,8.55023861,524.40856934,2,1
1312472029.09241605,47.37629318,8.55023861,524.43096924,2,1
1312472029.14329648,47.37629318,8.55023861,524.35296631,2,1
1312472029.19243836,47.37629318,8.55023861,524.27502441,2,1
1312472029.24331188,47.37629318,8.55023861,524.19696045,2,1
1312472029.29544425,47.37629318,8.55023861,524.11889648,2,1
1312472029.33635116,47.37629318,8.55023861,524.16687012,2,1
1312472029.39636803,47.37629318,8.55023861,524.10491943,2,1
1312472029.43529344,47.37629318,8.55023861,524.01196289,2,1
1312472029.48434377,47.37629318,8.55023956,523.94995117,2,1
1312472029.53637886,47.37629318,8.55023956,523.87243652,2,1
1312472029.59632564,47.37629318,8.55023956,523.96069336,2,1
1312472029.63676357,47.37629318,8.55023956,523.86853027,2,1
1312472029.68833590,47.37629318,8.55023956,523.80706787,2,1
1312472029.73626828,47.37629318,8.55023956,523.73022461,2,1
1312472029.78729200,47.37629318,8.55023956,523.65332031,2,1
1312472029.83529139,47.37629318,8.55023956,523.78631592,2,1
1312472029.88833070,47.37629318,8.55023956,523.71026611,2,1
1312472029.93709254,47.37629318,8.55023956,523.63421631,2,1
1312472029.98431969,47.37629318,8.55023956,523.55816650,2,1
1312472030.03522253,47.37629318,8.55023956,523.48205566,2,1
1312472030.08731794,47.37629318,8.55024052,523.64813232,2,1
1312472030.13547301,47.37629318,8.55024052,523.57299805,2,1
1312472030.18842673,47.37629318,8.55024052,523.49786377,2,1
1312472030.23643374,47.37629318,8.55024052,523.42266846,2,1
1312472030.28431940,47.37629318,8.55024052,523.34747314,2,1
1312472030.33630323,47.37629318,8.55024052,523.54217529,2,1
1312472030.38428330,47.37629318,8.55024052,523.46801758,2,1
1312472030.43674660,47.37629318,8.55024147,523.39392090,2,1
1312472030.48844147,47.37629318,8.55024147,523.31976318,2,1
1312472030.53634357,47.37629318,8.55024147,523.24554443,2,1
1312472030.58844590,47.37629318,8.55024242,523.47277832,2,1
1312472030.63647771,47.37629318,8.55024242,523.39978027,2,1
1312472030.68832874,47.37629318,8.55024242,523.32672119,2,1
1312472030.73636436,47.37629318,8.55024242,523.25366211,2,1
1312472030.78835201,47.37629318,8.55024242,523.18054199,2,1
1312472030.83729577,47.37629318,8.55024338,523.44311523,2,1
1312472030.88845611,47.37629318,8.55024338,523.37127686,2,1
1312472030.93649793,47.37629318,8.55024338,523.29943848,2,1
1312472030.98845458,47.37629318,8.55024433,523.22753906,2,1
1312472031.03642273,47.37629318,8.55024433,523.15563965,2,1
1312472031.08442259,47.37629318,8.55024433,523.43988037,2,1
1312472031.13556314,47.37629318,8.55024433,523.36932373,2,1
1312472031.18842220,47.37629318,8.55024433,523.29876709,2,1
1312472031.23538327,47.37629318,8.55024529,523.22814941,2,1
1312472031.28442693,47.37629318,8.55024529,523.15753174,3,1
1312472031.33668065,47.37629318,8.55024624,523.46124268,3,1
1312472031.38844085,47.37629318,8.55024624,523.39202881,3,1
1312472031.43528628,47.37629318,8.55024624,523.32275391,3,1
1312472031.48832107,47.37629318,8.55024624,523.25347900,3,1
1312472031.53619647,47.37629318,8.55024624,523.18414307,3,1
1312472031.58739495,47.37629318,8.55024624,523.50579834,3,1
1312472031.63528562,47.37629318,8.55024624,523.43798828,3,1
1312472031.68730140,47.37629318,8.55024624,523.37011719,3,1
1312472031.73618937,47.37629318,8.55024719,523.30218506,3,1
1312472031.78733087,47.37629318,8.55024719,523.23419189,3,1
1312472031.83532357,47.37628937,8.55024719,523.58123779,3,1
1312472031.88841248,47.37628937,8.55024719,523.51483154,3,1
1312472031.93627572,47.37628937,8.55024719,523.44836426,3,1
1312472031.98733759,47.37628937,8.55024719,523.38189697,3,1
1312472032.03567266,47.37628937,8.55024719,523.31536865,3,1
1312472032.08438230,47.37628937,8.55024719,523.68115234,3,1
1312472032.13536572,47.37628937,8.55024719,523.61621094,3,1
1312472032.18446732,47.37628937,8.55024719,523.55133057,3,1
1312472032.23636341,47.37628937,8.55024719,523.48632812,3,1
1312472032.28735137,47.37628937,8.55024719,523.42126465,3,1
1312472032.33656096,47.37628937,8.55024815,523.81256104,3,1
1312472032.38439274,47.37628937,8.55024815,523.74926758,3,1
1312472032.43690395,47.37628937,8.55024815,523.68591309,3,1
1312472032.48840714,47.37628937,8.55024815,523.62249756,3,1
1312472032.53648305,47.37628937,8.55024910,523.55914307,3,1
1312472032.58831954,47.37628937,8.55024815,523.97247314,3,1
1312472032.63665748,47.37628937,8.55024910,523.91082764,3,1
1312472032.68448472,47.37628937,8.55024910,523.84918213,3,1
1312472032.73640490,47.37628937,8.55024910,523.78747559,3,1
1312472032.78440952,47.37628937,8.55024910,523.72576904,3,1
1312472032.83550048,47.37628937,8.55024910,524.15399170,3,1
1312472032.88436627,47.37628937,8.55024910,524.09405518,3,1
1312472032.93670225,47.37628937,8.55025005,524.03405762,3,1
1312472032.98741174,47.37628937,8.55025005,523.97399902,3,1
1312472033.03672910,47.37628937,8.55025005,523.91394043,3,1
1312472033.08442211,47.37628937,8.55025005,524.36419678,3,1
1312472033.13542056,47.37628937,8.55025005,524.30603027,3,1
1312472033.18435836,47.37628937,8.55025005,524.24780273,3,1
1312472033.23620057,47.37628937,8.55025005,524.18951416,3,1
1312472033.28798771,47.37628937,8.55025101,524.13122559,3,1
1312472033.33635139,47.37628555,8.55025101,524.59771729,3,1
1312472033.38843894,47.37628555,8.55025101,524.54132080,3,1
1312472033.43651414,47.37628555,8.55025101,524.48486328,3,1
1312472033.48843288,47.37628555,8.55025101,524.42840576,3,1
1312472033.53540993,47.37628555,8.55025101,524.37188721,3,1
1312472033.58434534,47.37628555,8.55025196,524.85247803,3,1
1312472033.63642240,47.37628555,8.55025196,524.79791260,3,1
1312472033.68841910,47.37628555,8.55025196,524.74328613,3,1
1312472033.73574853,47.37628555,8.55025196,524.68859863,3,1
1312472033.78735089,47.37628555,8.55025196,524.63391113,3,1
1312472033.83629251,47.37628555,8.55025196,525.13769531,3,1
1312472033.88457561,47.37628555,8.55025196,525.08496094,3,1
1312472033.93675423,47.37628555,8.55025196,525.03222656,3,1
1312472033.98443007,47.37628555,8.55025196,524.97943115,3,1
1312472034.03652072,47.37628555,8.55025196,524.92663574,3,1
1312472034.08744431,47.37628555,8.55025196,525.45385742,3,1
1312472034.13543844,47.37628555,8.55025196,525.40313721,3,1
1312472034.18740654,47.37628555,8.55025196,525.35229492,3,1
1312472034.23628187,47.37628555,8.55025291,525.30145264,3,1
1312472034.28842521,47.37628555,8.55025291,525.25061035,3,1
1312472034.33677387,47.37628555,8.55025291,525.80444336,3,1
1312472034.38843846,47.37628555,8.55025291,525.75573730,3,1
1312472034.43825507,47.37628555,8.55025387,525.70703125,3,1
1312472034.48740101,47.37628555,8.55025387,525.65826416,3,1
1312472034.53554249,47.37628555,8.55025387,525.60943604,3,1
1312472034.58842611,47.37628555,8.55025482,526.17956543,3,1
1312472034.63641024,47.37628555,8.55025482,526.13299561,3,1
1312472034.68428278,47.37628555,8.55025482,526.08636475,3,1
1312472034.73639727,47.37628555,8.55025482,526.03973389,3,1
1312472034.78432989,47.37628555,8.55025482,525.99304199,3,1
1312472034.83531761,47.37628555,8.55025578,526.57702637,3,1
1312472034.88430047,47.37628555,8.55025578,526.53265381,3,1
1312472034.93643975,47.37628555,8.55025578,526.48822021,3,1
1312472034.98843765,47.37628174,8.55025578,526.44372559,3,1
1312472035.03534698,47.37628174,8.55025673,526.39929199,3,1
1312472035.08741713,47.37628174,8.55025673,526.99719238,3,1
1312472035.13928509,47.37628174,8.55025768,526.95501709,3,1
1312472035.18342376,47.37628174,8.55025768,526.91284180,3,1
1312472035.23557973,47.37628174,8.55025768,526.87054443,3,1
1312472035.28439140,47.37628174,8.55025768,526.82824707,3,1
1312472035.33629155,47.37628174,8.55025673,527.43444824,3,1
1312472035.38436723,47.37628174,8.55025673,527.39447021,3,1
1312472035.43627548,47.37628174,8.55025768,527.35443115,3,1
1312472035.48442078,47.37628174,8.55025768,527.31433105,3,1
1312472035.53627658,47.37628174,8.55025768,527.27416992,3,1
1312472035.58439732,47.37628174,8.55025768,527.87841797,3,1
1312472035.63534594,47.37628174,8.55025768,527.84057617,3,1
1312472035.68430519,47.37628174,8.55025768,527.80267334,3,1
1312472035.73605990,47.37628174,8.55025768,527.76470947,3,1
1312472035.78838587,47.37628174,8.55025768,527.72668457,3,1
1312472035.83630681,47.37627792,8.55025768,528.33654785,3,1
1312472035.88834953,47.37627792,8.55025768,528.30084229,3,1
1312472035.93633437,47.37627792,8.55025768,528.26513672,3,1
1312472035.98442292,47.37627792,8.55025768,528.22937012,3,1
1312472036.03651333,47.37627792,8.55025768,528.19354248,3,1
1312472036.08729672,47.37627792,8.55025864,528.80358887,3,1
1312472036.13543105,47.37627792,8.55025864,528.77001953,3,1
1312472036.18742394,47.37627792,8.55025864,528.73645020,3,1
1312472036.23630738,47.37627792,8.55025864,528.70281982,3,1
1312472036.28429914,47.37627792,8.55025864,528.66918945,3,1
1312472036.33627844,47.37627792,8.55025864,529.29150391,3,1
1312472036.39641833,47.37627792,8.55025864,529.26019287,3,1
1312472036.43641853,47.37627792,8.55025864,529.22259521,3,1
1312472036.48441291,47.37627792,8.55025959,529.19750977,3,1
1312472036.53631020,47.37627792,8.55025959,529.16613770,3,1
1312472036.58429742,47.37627411,8.55025959,529.78894043,3,1
1312472036.63642335,47.37627411,8.55025959,529.75988770,3,1
1312472036.68739843,47.37627411,8.55025959,529.73077393,3,1
1312472036.73643565,47.37627411,8.55025959,529.70166016,3,1
1312472036.78842831,47.37627411,8.55025959,529.67248535,3,1
1312472036.83666587,47.37627411,8.55025959,530.29418945,3,1
1312472036.88443828,47.37627411,8.55025959,530.26733398,3,1
1312472036.94328237,47.37627411,8.55026054,530.24047852,3,1
1312472036.98434830,47.37627029,8.55026054,530.20819092,3,1
1312472037.03540230,47.37627029,8.55026054,530.18664551,3,1
1312472037.08843565,47.37627029,8.55025959,530.79528809,3,1
1312472037.13533020,47.37627029,8.55025959,530.77062988,3,1
1312472037.18842554,47.37627029,8.55026054,530.74591064,3,1
1312472037.23671103,47.37627029,8.55026054,530.72119141,3,1
1312472037.28842378,47.37627029,8.55026054,530.69641113,3,1
1312472037.33641362,47.37627029,8.55026054,531.30743408,3,1
1312472037.38843656,47.37627029,8.55026054,531.28491211,3,1
1312472037.43672562,47.37626648,8.55026054,531.26239014,3,1
1312472037.48432231,47.37626648,8.55026054,531.23974609,3,1
1312472037.53673887,47.37626648,8.55026054,531.21710205,3,1
1312472037.58442593,47.37626648,8.55026054,531.82348633,3,1
1312472037.63644481,47.37626648,8.55026054,531.80310059,3,1
1312472037.68843436,47.37626648,8.55026054,531.78265381,3,1
1312472037.73640370,47.37626648,8.55026054,531.76214600,3,1
1312472037.78842759,47.37626648,8.55026054,531.74163818,3,1
1312472037.83645725,47.37626648,8.55026054,532.33374023,3,1
1312472037.88748693,47.37626266,8.55026054,532.31536865,3,1
1312472037.93650937,47.37626266,8.55026054,532.29699707,3,1
1312472037.98433447,47.37626266,8.55026054,532.27862549,3,1
1312472038.03607678,47.37626266,8.55026054,532.26019287,3,1
1312472038.08439660,47.37626266,8.55025959,532.84161377,3,1
1312472038.13532138,47.37626266,8.55025959,532.82531738,3,1
1312472038.18386316,47.37626266,8.55026054,532.80895996,3,1
1312472038.23532319,47.37626266,8.55026054,532.79260254,3,1
1312472038.29532099,47.37626266,8.55026054,532.77624512,3,1
1312472038.33630824,47.37626266,8.55026054,533.35943604,3,1
1312472038.39232731,47.37626266,8.55026054,533.34802246,3,1
1312472038.43566442,47.37626266,8.55026054,533.33093262,3,1
1312472038.49242187,47.37625885,8.55026054,533.31945801,3,1
1312472038.53640723,47.37625885,8.55026054,533.30224609,3,1
1312472038.58533359,47.37625885,8.55025959,533.86407471,3,1
1312472038.63640761,47.37625885,8.55025959,533.85168457,3,1
1312472038.69559884,47.37625885,8.55026054,533.83935547,3,1
1312472038.73651791,47.37625885,8.55026054,533.82446289,3,1
1312472038.78432965,47.37625885,8.55026054,533.81451416,3,1
1312472038.83526826,47.37625885,8.55025959,534.35656738,3,1
1312472038.89241481,47.37625885,8.55025959,534.34606934,3,1
1312472038.94736648,47.37625504,8.55025959,534.33343506,3,1
1312472038.98436475,47.37625504,8.55025959,534.32281494,3,1
1312472039.04371381,47.37625504,8.55025959,534.31433105,3,1
1312472039.09532547,47.37625504,8.55025959,534.83764648,3,1
1312472039.13630223,47.37625504,8.55025959,534.82885742,3,1
1312472039.18438387,47.37625504,8.55025959,534.82183838,3,1
1312472039.23650980,47.37625504,8.55025959,534.81304932,3,1
1312472039.29634666,47.37625504,8.55025959,534.80419922,3,1
1312472039.33640146,47.37625504,8.55025864,535.30657959,3,1
1312472039.38778567,47.37625504,8.55025864,535.30096436,3,1
1312472039.43639302,47.37625122,8.55025864,535.29388428,3,1
1312472039.48446655,47.37625122,8.55025864,535.28674316,3,1
1312472039.54338431,47.37625122,8.55025864,535.27960205,3,1
1312472039.59643197,47.37625122,8.55025768,535.74884033,3,1
1312472039.63531137,47.37625122,8.55025768,535.74334717,3,1
1312472039.69641900,47.37625122,8.55025768,535.73895264,3,1
1312472039.73629308,47.37625122,8.55025768,535.73223877,3,1
1312472039.78734112,47.37625122,8.55025768,535.72778320,3,1
1312472039.83631206,47.37624741,8.55025673,536.14459229,3,1
1312472039.88841867,47.37624741,8.55025673,536.14044189,3,1
1312472039.93642306,47.37624741,8.55025673,536.13623047,3,1
1312472039.98740435,47.37624741,8.55025673,536.13201904,3,1
1312472040.03539133,47.37624741,8.55025673,536.12774658,3,1
1312472040.08843946,47.37624741,8.55025578,536.51379395,3,1
1312472040.14335442,47.37624741,8.55025578,536.51092529,3,1
1312472040.18443513,47.37624741,8.55025578,536.50738525,3,1
1312472040.23631763,47.37624741,8.55025578,536.50506592,3,1
1312472040.28842664,47.37624741,8.55025578,536.50207520,3,1
1312472040.33635759,47.37624359,8.55025482,536.86700439,3,1
1312472040.39642286,47.37624359,8.55025482,536.86535645,3,1
1312472040.43645358,47.37624359,8.55025482,536.86334229,3,1
1312472040.49541950,47.37624359,8.55025482,536.86199951,3,1
1312472040.54333878,47.37624359,8.55025482,536.85986328,3,1
1312472040.58435607,47.37624359,8.55025387,537.17504883,3,1
1312472040.64442873,47.37624359,8.55025387,537.17449951,3,1
1312472040.69540763,47.37624359,8.55025387,537.17370605,3,1
1312472040.73643637,47.37624359,8.55025387,537.17297363,3,1
1312472040.79262924,47.37624359,8.55025387,537.17236328,3,1
1312472040.84333348,47.37623978,8.55025196,537.46228027,3,1
1312472040.89264297,47.37623978,8.55025196,537.46258545,3,1
1312472040.93641973,47.37623978,8.55025196,537.46276855,3,1
1312472040.98444319,47.37623978,8.55025196,537.46295166,3,1
1312472041.04340887,47.37623978,8.55025196,537.46313477,3,1
1312472041.09245420,47.37623978,8.55025101,537.74603271,3,1
1312472041.13640594,47.37623978,8.55025101,537.74725342,3,1
1312472041.19245434,47.37623978,8.55025101,537.74816895,3,1
1312472041.24328136,47.37623978,8.55025101,537.74957275,3,1
1312472041.29245949,47.37623978,8.55025101,537.75067139,3,1
1312472041.33629680,47.37623978,8.55025005,538.00384521,3,1
1312472041.38366914,47.37623596,8.55025005,538.00543213,3,1
1312472041.44335246,47.37623596,8.55025005,538.00732422,3,1
1312472041.49234438,47.37623596,8.55025005,538.00964355,3,1
1312472041.54343605,47.37623596,8.55025005,538.01147461,3,1
1312472041.59241176,47.37623596,8.55025005,538.26855469,3,1
1312472041.64330053,47.37623596,8.55025005,538.27136230,3,1
1312472041.69241691,47.37623596,8.55025005,538.27410889,3,1
1312472041.73640251,47.37623596,8.55025005,538.27685547,3,1
1312472041.78432727,47.37623596,8.55025005,538.27899170,3,1
1312472041.84510422,47.37623215,8.55024910,538.50524902,3,1
1312472041.89231968,47.37623215,8.55024910,538.50946045,3,1
1312472041.94332862,47.37623215,8.55024910,538.51287842,3,1
1312472041.99632740,47.37623215,8.55024910,538.51629639,3,1
1312472042.03835535,47.37623215,8.55024910,538.51965332,3,1
1312472042.09631109,47.37623215,8.55024719,538.73754883,3,1
1312472042.14333129,47.37623215,8.55024719,538.74249268,3,1
1312472042.19632816,47.37623215,8.55024719,538.74652100,3,1
1312472042.24433494,47.37623215,8.55024719,538.75054932,3,1
1312472042.29637122,47.37623215,8.55024719,538.75457764,3,1
1312472042.34446597,47.37623215,8.55024624,538.95849609,3,1
1312472042.39564562,47.37623215,8.55024624,538.96325684,3,1
1312472042.44430876,47.37623215,8.55024624,538.96795654,3,1
1312472042.49579382,47.37623215,8.55024624,538.97265625,3,1
1312472042.54442883,47.37623215,8.55024624,538.97723389,3,1
1312472042.59540319,47.37623215,8.55024624,539.16809082,3,1
1312472042.64443970,47.37622833,8.55024624,539.17340088,3,1
1312472042.69532657,47.37622833,8.55024624,539.17864990,3,1
1312472042.74442959,47.37622833,8.55024624,539.18383789,3,1
1312472042.79539490,47.37622833,8.55024624,539.18902588,3,1
1312472042.84443355,47.37622833,8.55024529,539.35809326,3,1
1312472042.89540434,47.37622833,8.55024529,539.36376953,3,1
1312472042.94432974,47.37622833,8.55024529,539.36950684,3,1
1312472042.99540663,47.37622833,8.55024529,539.37512207,3,1
1312472043.04344010,47.37622833,8.55024529,539.38073730,3,1
1312472043.09636235,47.37622833,8.55024433,539.54174805,3,1
1312472043.14448071,47.37622833,8.55024433,539.54791260,3,1
1312472043.19531751,47.37622452,8.55024433,539.55401611,3,1
1312472043.24442959,47.37622452,8.55024433,539.56018066,3,1
1312472043.29534388,47.37622452,8.55024433,539.56622314,2,1
1312472043.34437037,47.37622452,8.55024338,539.70513916,2,1
1312472043.39528370,47.37622452,8.55024338,539.71160889,2,1
1312472043.44331312,47.37622452,8.55024338,539.71813965,2,1
1312472043.49637246,47.37622452,8.55024338,539.72454834,2,1
1312472043.54331446,47.37622452,8.55024338,539.73095703,2,1
1312472043.59534097,47.37622452,8.55024338,539.86621094,2,1
1312472043.64329290,47.37622452,8.55024338,539.87304688,2,1
1312472043.69641805,47.37622452,8.55024338,539.87982178,2,1
1312472043.74329472,47.37622452,8.55024338,539.88659668,2,1
1312472043.79631114,47.37622452,8.55024338,539.89331055,2,1
1312472043.84333491,47.37622452,8.55024242,540.01928711,2,1
1312472043.89635539,47.37622452,8.55024242,540.02648926,2,1
1312472043.94327354,47.37622452,8.55024242,540.03363037,2,1
1312472043.99539971,47.37622070,8.55024242,540.04077148,2,1
1312472044.04329777,47.37622070,8.55024242,540.04785156,2,1
1312472044.09543777,47.37622070,8.55024242,540.14978027,2,1
1312472044.14547515,47.37622070,8.55024242,540.15716553,2,1
1312472044.19540620,47.37622070,8.55024242,540.16455078,2,1
1312472044.24442101,47.37622070,8.55024242,540.17187500,2,1
1312472044.29241467,47.37622070,8.55024242,540.17913818,2,1
1312472044.34335899,47.37622070,8.55024147,540.27642822,2,1
1312472044.39532828,47.37622070,8.55024147,540.28399658,2,1
1312472044.44329500,47.37622070,8.55024147,540.29156494,2,1
1312472044.49241781,47.37621689,8.55024147,540.29913330,2,1
1312472044.54343295,47.37621689,8.55024147,540.30664062,2,1
1312472044.59542179,47.37621689,8.55024147,540.38208008,2,1
1312472044.64328861,47.37621689,8.55024147,540.38983154,2,1
1312472044.69240928,47.37621689,8.55024147,540.39746094,2,1
1312472044.74348617,47.37621689,8.55024147,540.40509033,2,1
1312472044.79534340,47.37621689,8.55024147,540.41271973,2,1
1312472044.84431076,47.37621689,8.55024052,540.47271729,2,1
1312472044.89527845,47.37621689,8.55024052,540.48046875,2,1
1312472044.94436145,47.37621689,8.55024052,540.48822021,2,1
1312472044.99534535,47.37621689,8.55024052,540.49584961,2,1
1312472045.04438066,47.37621689,8.55024052,540.50354004,2,1
1312472045.09632373,47.37621689,8.55023956,540.56127930,2,1
1312472045.14431643,47.37621689,8.55023956,540.56909180,2,1
1312472045.19532752,47.37621689,8.55023956,540.57684326,2,1
1312472045.24434996,47.37621689,8.55023956,540.58459473,2,1
1312472045.29533815,47.37621689,8.55023956,540.59228516,2,1
1312472045.34443951,47.37621689,8.55023956,540.64154053,2,1
1312472045.39540958,47.37621689,8.55023956,540.64935303,2,1
1312472045.44442701,47.37621689,8.55023956,540.65710449,2,1
1312472045.49648023,47.37621307,8.55023861,540.66491699,2,1
1312472045.54328251,47.37621307,8.55023861,540.67260742,2,1
1312472045.59643579,47.37621307,8.55023861,540.73034668,2,1
1312472045.64374113,47.37621307,8.55023861,540.73828125,2,1
1312472045.69641852,47.37621307,8.55023861,540.74621582,2,1
1312472045.74338531,47.37621307,8.55023861,540.75415039,2,1
1312472045.79528260,47.37621307,8.55023861,540.76202393,2,1
1312472045.84441519,47.37621307,8.55023766,540.81646729,2,1
1312472045.89541173,47.37621307,8.55023766,540.82452393,2,1
1312472045.94442129,47.37621307,8.55023766,540.83258057,2,1
1312472045.99641347,47.37621307,8.55023766,540.84051514,2,1
1312472046.04351521,47.37621307,8.55023766,540.84844971,2,1
1312472046.09532833,47.37621307,8.55023670,540.88940430,2,1
1312472046.14356303,47.37621307,8.55023670,540.89746094,2,1
1312472046.19533944,47.37621307,8.55023670,540.90545654,2,1
1312472046.24392486,47.37621307,8.55023670,540.91339111,2,1
1312472046.29539371,47.37621307,8.55023670,540.92132568,2,1
1312472046.34442973,47.37621307,8.55023670,540.96630859,2,1
1312472046.39642358,47.37621307,8.55023670,540.97436523,2,1
1312472046.44328022,47.37621307,8.55023670,540.98236084,2,1
1312472046.49642777,47.37620926,8.55023670,540.99035645,2,1
1312472046.54331660,47.37620926,8.55023670,540.99835205,2,1
1312472046.59641743,47.37620926,8.55023670,541.03259277,2,1
1312472046.64431024,47.37620926,8.55023670,541.04064941,2,1
1312472046.69636130,47.37620926,8.55023670,541.04864502,2,1
1312472046.74430966,47.37620926,8.55023670,541.05664062,2,1
1312472046.79542136,47.37620926,8.55023670,541.06451416,2,1
1312472046.84433794,47.37620926,8.55023670,541.08258057,2,1
1312472046.89540601,47.37620926,8.55023670,541.09057617,2,1
1312472046.94328785,47.37620926,8.55023670,541.09844971,2,1
1312472046.99645066,47.37620926,8.55023670,541.10632324,2,1
1312472047.04443145,47.37620926,8.55023670,541.11413574,2,1
1312472047.09542990,47.37620926,8.55023670,541.14196777,2,1
1312472047.14444160,47.37620926,8.55023670,541.14984131,2,1
1312472047.19543362,47.37620926,8.55023670,541.15771484,2,1
1312472047.24332547,47.37620926,8.55023670,541.16558838,2,1
1312472047.29531908,47.37620926,8.55023670,541.17333984,2,1
1312472047.34328270,47.37620926,8.55023670,541.19799805,2,1
1312472047.39532351,47.37620926,8.55023670,541.20581055,2,1
1312472047.44342971,47.37620926,8.55023670,541.21356201,2,1
1312472047.49529862,47.37620926,8.55023670,541.22131348,2,1
1312472047.54427385,47.37620926,8.55023575,541.23193359,2,1
